Home > Weather > Port St. Lucie > Past weeks

Flag for USA Past Weather in Port St. Lucie, Florida, USA — Yesterday and Last 2 Weeks

Now
91 °F

Thundershowers. Scattered clouds.


Feels Like: 111 °F
Forecast: 78 / 88 °F
Wind: 16 mph from East

Location: Witham Field Airport

Current Time: Aug 27, 2016 at 4:49:02 PM

Latest Report: Aug 27, 2016 at 3:47 PM


Visibility: 7 mi

Pressure: 29.92 "Hg

Humidity: 71%

Dew Point: 81 °F

Location of Port St. LucieLocation

Past Weather in Port St. Lucie — Graph

°F

Port St. Lucie Temperature Yesterday

Maximum temperature yesterday: 91 °F (at 2:47 PM)
Minimum temperature yesterday: 81 °F (at 5:15 AM)
Average temperature yesterday: 85 °F

High & Low Weather Summary for the Past Weeks

 TemperatureHumidityPressure
High97 °F (Aug 16, 10:47 AM)94% (Aug 13, 6:35 AM)30.20 "Hg (Aug 13, 6:35 AM)
Low77 °F (Aug 17, 9:47 AM)56% (Aug 12, 3:47 PM)29.91 "Hg (Aug 26, 5:47 PM)
Average84 °F81%30.06 "Hg
* Reported Aug 12 3:47 PM — Aug 27 3:47 PM, Port St. Lucie, Weather by CustomWeather, © 2016

Note: Actual official high and low records may vary slightly from our data, if they occured in-between our weather recording intervals... More about our weather records

Advertising

Port St. Lucie Weather History for the Previous 24 Hours

Scroll right to see more
 ConditionsComfort  
Time TempWeatherWind HumidityBarometerVisibility
3:47 PM
Sat, Aug 27
91 °FThundershowers. Scattered clouds.16 mph71%29.92 "Hg7 mi
2:47 PM90 °FThundershowers. Scattered clouds.14 mph71%29.93 "Hg7 mi
1:47 PM90 °FThundershowers. Partly sunny.12 mph71%29.97 "Hg7 mi
12:47 PM88 °FThundershowers. Partly sunny.6 mph79%29.97 "Hg7 mi
11:47 AM82 °FThunderstorms. Scattered clouds.6 mph84%29.98 "Hg7 mi
10:47 AM91 °FThundershowers. Scattered clouds.12 mph71%29.97 "Hg7 mi
9:47 AM86 °FScattered clouds.12 mph84%29.96 "Hg7 mi
8:47 AM86 °FThunderstorms. Broken clouds.12 mph79%29.96 "Hg7 mi
7:47 AM84 °FThundershowers. Partly cloudy.6 mph84%29.93 "Hg7 mi
6:47 AM84 °FThundershowers. Partly cloudy.6 mph84%29.93 "Hg7 mi
6:35 AM82 °FWarm.5 mph89%29.93 "HgN/A
6:15 AM82 °FWarm.6 mph89%29.93 "HgN/A
5:55 AM82 °FThundershowers. Overcast.6 mph89%29.92 "HgN/A
5:15 AM82 °FWarm.No wind89%29.92 "HgN/A
4:55 AM82 °FClear.3 mph84%29.92 "HgN/A
4:15 AM82 °FWarm.8 mph89%29.92 "HgN/A
3:55 AM82 °FWarm.5 mph89%29.92 "HgN/A
3:35 AM82 °FClear.3 mph89%29.93 "HgN/A
3:15 AM82 °FWarm.5 mph89%29.93 "HgN/A
2:55 AM82 °FWarm.3 mph89%29.94 "HgN/A
2:35 AM82 °FWarm.3 mph89%29.94 "HgN/A
2:15 AM82 °FWarm.3 mph89%29.93 "HgN/A
1:55 AM82 °FWarm.3 mph89%29.94 "HgN/A
1:35 AM82 °FWarm.3 mph89%29.94 "HgN/A
1:15 AM81 °FWarm.No wind94%29.96 "HgN/A
12:55 AM81 °FWarm.3 mph89%29.96 "HgN/A
12:15 AM81 °FWarm.3 mph89%29.99 "HgN/A
11:55 PM
Fri, Aug 26
81 °FPartly cloudy.6 mph84%29.99 "HgN/A
11:15 PM86 °FPartly cloudy.6 mph79%30.00 "HgN/A
10:55 PM84 °FPassing clouds.5 mph84%30.00 "HgN/A
10:15 PM84 °FThundershowers. Passing clouds.6 mph84%29.99 "HgN/A
8:47 PM84 °FPartly cloudy.8 mph84%29.96 "Hg7 mi
6:47 PM86 °FScattered clouds.8 mph79%29.93 "Hg7 mi
5:47 PM90 °FScattered clouds.8 mph71%29.91 "Hg7 mi
4:47 PM86 °FBroken clouds.8 mph84%29.92 "Hg7 mi
Weather by CustomWeather, © 2016

See weather overviewHow to use our weather pages